{"data":{"norad_id":56961,"epoch":"2026-05-24T23:08:24.609408Z","epoch_age_seconds":75386,"freshness":"FRESH","line1":"1 56961U 23084AF  26144.96417372  .00909126  43311-3  13573-2 0  9993","line2":"2 56961  97.5648 308.3929 0010200 278.2428  81.7695 16.04785419165562","mean_motion":16.04785419,"eccentricity":0.00102,"inclination_deg":97.5648,"raan_deg":308.3929,"arg_perigee_deg":278.2428,"mean_anomaly_deg":81.7695,"bstar":0.0013573,"rev_number":16556,"period_min":89.731622866895,"perigee_km":254.41486985839,"apogee_km":267.95909077824,"semimajor_km":6639.3239803183,"source":"CELESTRAK","updated_at":"2026-05-25T13:37:59.788711Z"}}